Location: Maiden
(35.5760°N, 81.2120°W)
Time: 10:27:40
(UTC-04:00)

Transit 2A Rocket - Visible Passes

Search period start: 04 August 2020 00:00
Search period end: 14 August 2020 00:00
Orbit: 584 x 919 km, 66.7° (Epoch: 03 August)

Date Brightness Start Highest point End Pass type
(mag) Time Alt. Az. Time Alt. Az. Time Alt. Az.
04 Aug 7.7 06:04:22 10° SE 06:07:55 17° ESE 06:11:36 10° ENE visible
07 Aug 7.3 05:38:01 10° SSE 05:42:32 26° ESE 05:47:18 10° NE visible
08 Aug 7.7 04:57:32 10° SE 05:00:21 14° ESE 05:03:14 10° ENE visible
09 Aug 5.7 05:54:04 10° SSW 05:59:36 66° ESE 06:05:34 10° NNE visible
10 Aug 6.5 05:12:06 10° S 05:17:12 37° ESE 05:22:39 10° NE visible
11 Aug 7.3 04:30:49 10° SSE 04:34:56 21° ESE 04:39:15 10° ENE visible
11 Aug 5.6 06:11:32 10° SW 06:17:04 52° WNW 06:22:59 10° NNE visible
12 Aug 7.7 03:51:12 10° ESE 03:52:47 11° E 03:54:22 10° E visible
12 Aug 5.3 05:29:37 15° SSW 05:34:25 88° WNW 05:40:31 10° NNE visible
13 Aug 5.8 04:48:44 25° S 04:51:56 54° ESE 04:57:48 10° NE visible
